FLOCK 2E-8

Last updated on July 26, 2017, 12:15 a.m. UTC

1 41566U 98067JQ  17206.27883922  .05766721  12222-4  66905-3 0  9995
2 41566  51.6005 150.4905 0009036 238.6411 121.3730 16.35810441 66077

Satellite is not in orbit.